Paganella, Italy

11:34 AM CET on February 12, 2016 (GMT +0100)
Paganella

Weather History for LIVP - November, 2012

Change the Weather History Date:

Wednesday, November 7, 2012

  Actual Average Record
Temperature  
Mean Temperature 26 °F -  
Max Temperature 32 °F 33 °F 50 °F (2015)
Min Temperature 21 °F 25 °F 19 °F (2002)
Degree Days  
Heating Degree Days 38    
Moisture  
Dew Point 11 °F    
Average Humidity 47    
Maximum Humidity 64    
Minimum Humidity 22    
Precipitation  
Precipitation 0.00 in 0.06 in - ()
Sea Level Pressure  
Sea Level Pressure 30.18 in    
Wind  
Wind Speed 8 mph ()    
Max Wind Speed 17 mph    
Max Gust Speed -    
Averages and records for this station are not official NWS values.
T = Trace of Precipitation, MM = Missing Value Source: Averaged Metar Reports

Daily Weather History Graph

Daily Weather History Graph

Search for Another Location

Airport or City:

Trip Planner

Search our weather history database for the weather conditions in past years. The results will help you decide how hot, cold, wet, or windy it might be!

Date:

Astronomy

Nov. 07, 2012 Rise Set
Actual Time 7:05 AM CET 4:52 PM CET
Civil Twilight 6:33 AM CET 5:24 PM CET
Nautical Twilight 5:58 AM CET 6:00 PM CET
Astronomical Twilight 5:22 AM CET 6:35 PM CET
Moon No Moon Rise 1:14 PM CET (11/7)
Length of Visible Light 10h 50m
Length of Day
9h 47m
Last Quarter, 46% of the Moon is Illuminated
Nov 7
Last Quarter
Nov 13
New
Nov 20
First Quarter
Nov 28
Full
Dec 6
Last Quarter

Hourly Weather History & Observations

Time (CET) Temp. Windchill Dew Point Humidity Pressure Visibility Wind Dir Wind Speed Gust Speed Precip Events Conditions
12:55 AM 23.0 °F 10.1 °F 8.6 °F 54% 30.04 in - North 15.0 mph - N/A   Clear
1:00 AM 23 °F - 9 °F 42%  in 25 mi North 15.0 mph - -  
1:55 AM 23.0 °F 11.1 °F 8.6 °F 54% 30.04 in - North 12.7 mph - N/A   Clear
2:55 AM 23.0 °F 12.4 °F 6.8 °F 50% 30.06 in - North 10.4 mph - N/A   Clear
3:55 AM 23.0 °F 13.1 °F 8.6 °F 54% 30.06 in - North 9.2 mph - N/A   Clear
4:00 AM 23 °F - 9 °F 40%  in 25 mi North 9.2 mph - -  
4:55 AM 23.0 °F 12.4 °F 6.8 °F 50% 30.06 in - North 10.4 mph - N/A   Clear
5:55 AM 24.8 °F 20.5 °F -4.0 °F 28% 30.09 in - NW 3.5 mph - N/A   Clear
6:55 AM 23.0 °F - -0.4 °F 36% 30.09 in - NNW 2.3 mph - N/A   Clear
7:00 AM 23 °F - 0 °F 22%  in 44 mi NNW 2.3 mph - -   Scattered Clouds
7:55 AM 23.0 °F 17.0 °F 1.4 °F 39% 30.12 in - WSW 4.6 mph - N/A   Clear
8:55 AM 24.8 °F - 5.0 °F 43% 30.15 in - Variable 2.3 mph - N/A   Clear
9:55 AM 26.6 °F - 14.0 °F 59% 30.15 in - Variable 2.3 mph - N/A   Clear
10:00 AM 27 °F - 15 °F 46%  in 44 mi 2.3 mph - -   Scattered Clouds
10:55 AM 26.6 °F - 10.4 °F 51% 30.18 in - Variable 2.3 mph - N/A   Clear
11:55 AM 26.6 °F - 10.4 °F 51% 30.18 in - Variable 2.3 mph - N/A   Clear
12:55 PM 28.4 °F 24.6 °F 6.8 °F 40% 30.18 in - Variable 3.5 mph - N/A   Clear
1:00 PM 29 °F - 7 °F 24%  in 47 mi 3.5 mph - -  
1:55 PM 30.2 °F 25.4 °F 8.6 °F 40% 30.21 in - North 4.6 mph - N/A   Clear
2:55 PM 30.2 °F 25.4 °F 10.4 °F 44% 30.21 in - NW 4.6 mph - N/A   Clear
3:55 PM 30.2 °F 21.9 °F 12.2 °F 47% 30.21 in - North 9.2 mph - N/A   Clear
4:00 PM 30 °F - 12 °F 32%  in 47 mi North 9.2 mph - -  
4:55 PM 30.2 °F 18.5 °F 14.0 °F 51% 30.24 in - North 17.3 mph - N/A   Clear
5:55 PM 28.4 °F 17.5 °F 15.8 °F 59% 30.24 in - NNE 13.8 mph - N/A   Clear
6:55 PM 28.4 °F 18.5 °F 17.6 °F 64% 30.27 in - NE 11.5 mph - N/A   Clear
7:00 PM 29 °F - 17 °F 49%  in 47 mi NE 11.5 mph - -  
7:55 PM 30.2 °F 25.4 °F 17.6 °F 60% 30.30 in - SSW 4.6 mph - N/A   Clear
8:55 PM 32.0 °F 28.7 °F 19.4 °F 60% 30.30 in - South 3.5 mph - N/A   Clear
9:55 PM 32.0 °F 25.6 °F 19.4 °F 60% 30.30 in - SSW 6.9 mph - N/A   Clear
10:00 PM 32 °F - 19 °F 46%  in 47 mi SSW 6.9 mph - -  
10:55 PM 32.0 °F 23.0 °F 17.6 °F 55% 30.33 in - WSW 11.5 mph - N/A   Clear
11:55 PM 32.0 °F 22.5 °F 19.4 °F 60% 30.33 in - SW 12.7 mph - N/A   Clear